Hourly Data Report for July 31, 2016

TORONTO CITY
ONTARIO

43°40'00.000" N
79°24'00.000" W
112.50 m
6158355
71508
XTO

Download Data

Hourly Data (July 2016)
Hourly Data Report for July 31, 2016
TIME
LST
Temp Definition
°C
Dew Point Definition
°C
Rel Hum Definition
%
Precip. Amount Definition
mm

Wind Dir Definition
10's deg

Wind Spd Definition
km/h
Visibility Definition
km
Stn Press Definition
kPa
Hmdx Definition


Wind Chill Definition


Weather Definition


00:00 21.8 14.6 64 0.0 LegendMM LegendMM   100.32 26   LegendNANA
01:00 22.4 15.3 64 0.0 LegendMM LegendMM   100.28 27   LegendNANA
02:00 22.2 14.4 61 0.0 LegendMM LegendMM   100.25 26   LegendNANA
03:00 21.5 14.2 63 0.0 LegendMM LegendMM   100.27 25   LegendNANA
04:00 21.8 12.5 56 0.0 LegendMM LegendMM   100.26     LegendNANA
05:00 21.6 12.0 55 0.0 LegendMM LegendMM   100.27     LegendNANA
06:00 21.9 12.3 54 0.0 LegendMM LegendMM   100.32     LegendNANA
07:00 21.9 12.5 55 0.0 LegendMM LegendMM   100.34     LegendNANA
08:00 22.1 13.4 58 0.0 LegendMM LegendMM   100.36 25   LegendNANA
09:00 21.7 14.1 62 0.0 LegendMM LegendMM   100.39 25   LegendNANA
10:00 19.4 16.5 83 1.7 LegendMM LegendMM   100.40     LegendNANA
11:00 19.9 16.3 80 0.0 LegendMM LegendMM   100.42     LegendNANA
12:00 20.3 18.0 87 0.3 LegendMM LegendMM   100.41 26   LegendNANA
13:00 20.3 18.5 90 0.3 LegendMM LegendMM   100.41 27   LegendNANA
14:00 20.4 18.6 89 1.7 LegendMM LegendMM   100.40 27   LegendNANA
15:00 20.4 16.9 80 0.0 LegendMM LegendMM   100.39 26   LegendNANA
16:00 22.8 17.3 71 0.0 LegendMM LegendMM   100.35 28   LegendNANA
17:00 23.3 16.3 64 0.0 LegendMM LegendMM   100.33 28   LegendNANA
18:00 23.1 15.8 64 0.0 LegendMM LegendMM   100.36 28   LegendNANA
19:00 22.8 15.7 64 0.0 LegendMM LegendMM   100.33 27   LegendNANA
20:00 22.3 14.9 63 0.0 LegendMM LegendMM   100.33 26   LegendNANA
21:00 21.3 15.2 68 0.0 LegendMM LegendMM   100.38 25   LegendNANA
22:00 20.6 15.8 74 0.0 LegendMM LegendMM   100.39 25   LegendNANA
23:00 20.2 15.9 76 0.0 LegendMM LegendMM   100.39 25   LegendNANA

Notes on Data Quality.

Legend

  • E = Estimated
  • M = Missing
  • NA = Not Available*
  • [empty] = Indicates an unobserved value
Date modified: